User: anonymous   Login
Location: Theydon Bois
(51.6750°N, 0.1050°E)
Time: 13:12:38
(UTC+00:00)
Language:

SPOT 5 - Orbit

View from above orbital plane
View from above orbital plane
View from above satellite
View from above satellite

Ground track
Ground track

The orbit data is extracted from the following two-line orbital elements,

1 27421U 02021A   17348.15495143  .00000076  00000-0  28022-4 0  9997
2 27421  98.3848  51.4320 0136050 136.9674 224.2265 14.51904874811785
Epoch (UTC): 14 December 2017 03:43:07
Eccentricity: 0.0136050
inclination: 98.3848°
perigee height: 623 km
apogee height: 816 km
right ascension of ascending node: 51.4320°
argument of perigee: 136.9674°
revolutions per day: 14.51904874
mean anomaly at epoch: 224.2265°
orbit number at epoch: 81178

The dashed part of the orbit path shows where the satellite is in the earth's shadow,  

DLR